Regional Weather Roundup
Issued by NWS

Home | Current Version | Previous Version | Text Only | Print | Product List | Glossary Off
Versions: 1 2 3 4 5 6 7 8 9 10 11 12 13 14 15 16 17 18 19 20 21 22 23 24 25 26 27 28 29 30 31 32 33 34 35 36 37 38 39 40 41 42 43 44 45 46 47 48 49 50

103
ASUS43 KMKX 110210
RWRWI

WISCONSIN REGIONAL WEATHER ROUNDUP
NATIONAL WEATHER SERVICE MILWAUKEE/SULLIVAN WI
800 PM CST WED FEB 10 2016

NOTE: "FAIR" INDICATES FEW OR NO CLOUDS BELOW 12,000 FEET WITH NO
SIGNIFICANT WEATHER AND/OR OBSTRUCTIONS TO VISIBILITY.

WIZ001-002-006>008-014>016-023>028-110300-
NORTHWEST WISCONSIN

CITY           SKY/WX    TMP DP  RH WIND       PRES   REMARKS
SUPERIOR ARPT  MOCLDY     8  -6  53 N9        30.24R WCI  -6
ASHLAND        PTCLDY    -5  -8  87 SW3       30.19S
HAYWARD        CLEAR     -2  -8  76 CALM      30.17R
SIREN          CLOUDY     3  -5  68 CALM      30.22R
CUMBERLAND     CLOUDY     3  -6  66 NW6       30.17R WCI  -8
RICE LAKE      CLOUDY     6  -4  64 NW5       30.19R WCI  -3
CHETEK         CLOUDY     3  -3  75 CALM      30.19R
LADYSMITH      CLEAR      4  -4  70 N5        30.16R WCI  -5
EAU CLAIRE     CLOUDY     7  -5  57 NW7       30.18R WCI  -5
MENOMONIE      CLOUDY     8  -3  60 W6        30.20R WCI  -2
NEW RICHMOND   CLOUDY     6  -3  65 N6        30.21R WCI  -5
OSCEOLA        CLOUDY     8  -3  62 CALM      30.25R
$$

WIZ003>005-009-010-017-018-110300-
NORTH CENTRAL WISCONSIN

CITY           SKY/WX    TMP DP  RH WIND       PRES   REMARKS
MANITOWISH WTR CLOUDY     5   0  78 NW6       30.07R WCI  -6
ARBOR VITAE    CLOUDY     9   2  72 NW7       30.06S WCI  -2
WOODRUFF       CLOUDY     9   2  72 NW7       30.06S WCI  -2
RHINELANDER    CLOUDY     6  -4  63 N9        30.06S WCI  -8
EAGLE RIVER    CLOUDY     6  -4  65 N7        30.05F WCI  -6
LAND O LAKES   CLOUDY     6  -1  74 NW6       30.06S WCI  -5
PHILLIPS       CLOUDY    -1  -5  81 CALM      30.11R
TOMAHAWK       CLOUDY     5  -4  67 N5        30.09S WCI  -4
MEDFORD        CLEAR      2  -5  72 N7        30.09R WCI -10
MERRILL        MOCLDY     5  -5  64 N5        30.10S WCI  -4
$$

WIZ029-030-035-036-043>047-110300-
CENTRAL WISCONSIN

CITY           SKY/WX    TMP DP  RH WIND       PRES   REMARKS
WAUSAU         CLEAR      7  -4  60 N7        30.09R WCI  -5
MOSINEE        CLEAR      7  -4  61 NW5       30.10R WCI  -2
MARSHFIELD     CLEAR      1  -8  66 NW8       30.10R WCI -13
STEVENS POINT  CLEAR      3  -6  66 N3        30.11R
WAUPACA        PTCLDY     9  -5  53 NW5       30.13R WCI   1
WAUTOMA        PTCLDY     4  -6  63 NW5       30.13S WCI  -5
WISC RAPIDS    CLEAR      4  -6  63 NW6       30.13S WCI  -7
CAMP DOUGLAS   MOCLDY    -2  -4  92 W6        30.14R WCI -14
$$

WIZ011>013-019>022-031-037>040-048>050-110300-
NORTHEAST WISCONSIN

CITY           SKY/WX    TMP DP  RH WIND       PRES   REMARKS
ANTIGO         MOCLDY     3  -6  67 N8        30.06S WCI -11
SHAWANO        CLEAR     10  -4  52 N3        30.12R
OCONTO         CLEAR      6  -5  58 N5        30.13R WCI  -2
STURGEON BAY   CLEAR      9  -6  52 N12       30.12R WCI  -6
GREEN BAY      CLEAR      5  -6  60 NW5       30.12R WCI  -4
MANITOWOC      CLEAR      8  -4  58 NW6       30.12R WCI  -2
APPLETON       PTCLDY     9  -8  47 NW6       30.08R WCI  -1
CLINTONVILLE   CLEAR     10  -6  48 N3        30.12R
OSHKOSH        CLEAR      7  -6  55 W7        30.11R WCI  -5
$$

WIZ032>034-041-042-053>061-110300-
SOUTHWEST WISCONSIN

CITY           SKY/WX    TMP DP  RH WIND       PRES   REMARKS
LA CROSSE      MOCLDY     4  -5  66 NW7       30.19R WCI  -8
SPARTA         CLEAR      2  -4  75 CALM      30.18R
VIROQUA        CLEAR      1  -6  71 N3        30.12R
BOSCOBEL       MOCLDY     5  -3  69 CALM      30.18R HAZE
PRAIRIE DU CHI CLOUDY    11   0  61 W5        30.18R WCI   3
PLATTEVILLE    CLOUDY     8  -1  68 CALM      30.13R
$$

WIZ056-057-062-063-064-067-068-110300-
SOUTH CENTRAL WISCONSIN

CITY           SKY/WX    TMP DP  RH WIND       PRES   REMARKS
REEDSBURG      CLEAR      8  -3  59 CALM      30.13R
BARABOO/DELLS  CLEAR      7  -4  60 N3        30.12R
LONE ROCK      CLEAR      3  -4  72 W5        30.17R WCI  -6
MINERAL POINT  CLEAR     10  -4  52 CALM      30.11R
MADISON        CLEAR      6  -2  69 CALM      30.12R
MIDDLETON      CLEAR      7  -1  70 CALM      30.13R
WATERTOWN      CLEAR      9   0  65 NW3       30.11S
MONROE         CLEAR     10   1  67 N5        30.10R WCI   2
JANESVILLE     CLEAR     10   1  67 CALM      30.12R
$$

WIZ051-052-058>065-066-070>072-110300-
SOUTHEAST WISCONSIN

CITY           SKY/WX    TMP DP  RH WIND       PRES   REMARKS
MILWAUKEE      MOCLDY    11  -2  56 NW6       30.13R WCI   1
WAUKESHA       CLEAR      5  -2  72 W3        30.12R
MILWAUKEE/TIMM CLEAR      9  -2  61 MISG      30.13R
RACINE         CLEAR     10  -3  55 NW5       30.14R WCI   2
BURLINGTON     CLEAR      6  -2  71 CALM      30.12S
KENOSHA        CLEAR     10  -1  61 NW5       30.12R WCI   2
FOND DU LAC    CLEAR      8  -4  58 W9        30.11R WCI  -5
SHEBOYGAN      CLEAR      5  -5  63 W7        30.10R WCI  -7
WEST BEND      PTCLDY     9  -2  61 CALM      30.10S
JUNEAU         CLEAR      7  -3  65 CALM      30.12S
$$

LSZ147-162-110300-
LAKE SUPERIOR

STATION/POSITION TIME  TEMP    WIND        PRES    WAVE
                       AIR SEA DIR/SP/G            HT/PER
                 (UTC) (F)     (DEG/KT/KT) (MB)    (FT/S)
DEVILS ISLAND    0200   10     340/ 14/ 19 1024.3R
PORT WING        0100    3     140/  3/  4 1022.4
SAXON HARBOR     0100    8                 1021.7R
$$

LMZ867-665-643>646-110300-
LAKE MICHIGAN

STATION/POSITION TIME  TEMP    WIND        PRES    WAVE
                       AIR SEA DIR/SP/G            HT/PER
                 (UTC) (F)     (DEG/KT/KT) (MB)    (FT/S)
CHAMBERS ISLAND  0100    9     310/ 17/ 23 1019.3R
ALGOMA LAKESHORE 0141          360/  3/  6   N/A
KEWAUNEE LAKESHO 0100   10     330/  5/  7 1018.3R
SHEBOYGAN LAKESH 0200   10     270/  7/  9 1021.4R
PORT WASHINGTON  0140   10     290/  4/  6 1021.3R
MILWAUKEE LAKESH 0110   13     290/  6/  8   N/A
KENOSHA   LAKESH 0200   11     310/  6/  8 1020.3R
$$

TC  - TEMPERATURE IN CELSIUS
VSB - VISIBILITY IN STATUTE MILES
WCI - WIND CHILL INDEX
HX  - HEAT INDEX





USA.gov is the U.S. government's official web portal to all federal, state and local government web resources and services.